Regional Weather Roundup
Issued by NWS Wakefield, VA

Home | Current Version | Previous Version | Graphics & Text | Print | Product List | Glossary On
Versions: 1 2 3 4 5 6 7 8 9 10 11 12 13 14 15 16 17 18 19 20 21 22 23 24 25 26 27
000
ASUS41 KAKQ 220810
RWRAKQ

REGIONAL WEATHER ROUNDUP
NATIONAL WEATHER SERVICE WAKEFIELD VA
400 AM EDT WED OCT 22 2014

Note: "fair" indicates few or no clouds below 12,000 feet with no
significant weather and/or obstructions to visibility. * = Denotes
station may not report precipitation (e.g., rain,snow,etc.),
thunder or fog.

VAZ042-051-052>054-056-220900-
NORTHERN VIRGINIA

CITY           SKY/WX    TMP DP  RH WIND       PRES   REMARKS
WASH NATIONAL  LGT RAIN  55  50  83 NW13      29.87S
DULLES         CLOUDY    51  49  92 NW8       29.88F
FORT BELVOIR   NOT AVBL
QUANTICO       CLOUDY    53  49  86 N13       29.87F
FREDERICKSBRG* LGT RAIN  54  52  93 NW8       29.86F
STAFFORD*      CLOUDY    51  51 100 NW9       29.91S
WARRENTON      CLOUDY    53  53  99 NW10      29.87F
CULPEPER*      RAIN      54  48  82 NW7       29.90S
MANASSAS*      CLOUDY    52  52 100 NW13      29.88S
LEESBURG*      DRIZZLE   52  52 100 NW7       29.90S
WINCHESTER     CLOUDY    52  45  76 NW13      29.92R
FRONT ROYAL*   CLOUDY    50  46  87 NW7       29.91S
LURAY*         DRIZZLE   52  46  82 NW7       29.93R
$$

VAZ048-049-060>072-079>083-220900-
CENTRAL AND SOUTH CENTRAL VIRGINIA...AND NORTH CENTRAL NORTH CAROLINA

CITY           SKY/WX    TMP DP  RH WIND       PRES   REMARKS
RICHMOND       CLOUDY    54  48  80 NW10      29.86F
CHESTERFIELD*  CLOUDY   N/A N/A N/A NW9       29.88S
PETERSBURG*    CLOUDY    53  47  81 NW9       29.87F
HANOVER        CLOUDY    53  48  83 NW9       29.88F
TAPPAHANNOCK*  CLOUDY    54  48  82 CALM      29.85S
CHARLOTTSVILLE CLOUDY    52  45  77 N7        29.89F
ORANGE*        CLOUDY    54  46  76 W3        29.90F
LOUISA*        CLOUDY    52  48  87 NW5       29.87S
FARMVILLE*     RAIN      52  50  93 CALM      29.89S
CREWE*         CLOUDY    52  48  86 NW8       29.90S
FORT PICKETT*  CLOUDY    52  48  86 NW9       29.89S
LUNENBURG*     CLOUDY    53  47  81 NW7       29.90S
SOUTH HILL*    PTCLDY    54  46  76 NW3       29.94F
LAWRENCEVILLE* CLOUDY    52  48  87 NW6       29.88S
ROANOKE RAPIDS CLOUDY    52  45  76 W12       29.89R
RALEIGH        PTCLDY    50  40  68 VRB3      29.93S
$$

VAZ088>098-220900-
SOUTHEAST VIRGINIA

CITY           SKY/WX    TMP DP  RH WIND       PRES   REMARKS
NORFOLK        RAIN      56  52  86 N13       29.80F
VIRGINIA BEACH TSTM      57  52  83 N10       29.78F
NORFOLK NAVAL  CLOUDY    57  54  88 NW10      29.83F
WEST POINT*    CLOUDY    56  51  84 NW6       29.85F
NEWPORT NEWS   CLOUDY    57  51  80 NW7       29.83S
LANGLEY AFB    CLOUDY    55  55 100 NW9       29.81F
FORT EUSTIS    CLOUDY    56  56 100 NW7       29.81F
WILLIAMSBURG*  MOCLDY    57  54  88 N5        29.84F
HR EXEC AP*    CLOUDY    54  50  87 W3        29.84F
FRANKLIN*      CLOUDY    54  52  94 W5        29.86R
WAKEFIELD      CLOUDY    54  49  83 VRB3      29.85F
$$

VAZ020-022-025-037-045-220900-
WEST CENTRAL AND SOUTHWEST VIRGINIA

CITY           SKY/WX    TMP DP  RH WIND       PRES   REMARKS
STAUNTON*      CLOUDY    51  41  68 N6        29.95S
HOT SPRINGS VA CLOUDY    39  37  94 NW13G21   29.92S
LYNCHBURG      PTCLDY    46  42  86 CALM      29.94F
DANVILLE       CLOUDY    50  42  74 S5        29.95S
SOUTH BOSTON*  NOT AVBL
MARTINSVILLE   MOCLDY    49  38  66 NW5       30.00S
ROANOKE        PTCLDY    49  36  61 NW8       29.99F
BLACKSBURG     CLOUDY    46  41  81 NW9       30.02S
DUBLIN*        CLOUDY    46  40  78 NW7       30.03S
MARION*        CLOUDY    44  38  79 W8G16     30.07R
HILLSVILLE*    CLOUDY    42  37  83 NW14      30.00S
RICHLANDS*     CLOUDY    44  41  90 NW9       30.07R
WISE*          CLOUDY    41  41 100 NW5       30.09S
ABINGDON*      RAIN      46  42  89 N6        30.08R
$$

MDZ021>025-VAZ099-100-220900-
SOUTHERN MARYLAND AND THE DELMARVA PENINSULA

CITY           SKY/WX    TMP DP  RH WIND       PRES   REMARKS
PATUXENT RIVER CLOUDY    55  51  86 NW17      29.81F
BAY BRIDGE APT LGT RAIN  54  54 100 N9G16     29.84S
LEONARDTOWN    CLOUDY    54  50  87 NW6       29.83F
DOVER          LGT RAIN  55  55 100 NW10      29.79F
GEORGETOWN     CLOUDY    55  53  93 VRB3      29.80F FOG
EASTON         CLOUDY    56  56 100 N8        29.85F
CAMBRIDGE      CLOUDY    55  54  94 N6        29.80F
SALISBURY      CLOUDY    57  54  89 CALM      29.80F FOG
OCEAN CITY     CLOUDY    54  52  93 N5        29.79F FOG
WALLOPS ISLAND MOCLDY    56  54  93 N7        29.79F
ACCOMACK*      CLOUDY    55  54  94 N3        29.79F
$$

NCZ012>017-030>032-220900-
EASTERN NORTH CAROLINA

CITY           SKY/WX    TMP DP  RH WIND       PRES   REMARKS
ELIZABETH CITY MOCLDY    57  52  83 NW9       29.81F
AHOSKIE*       PTCLDY    51  49  94 CALM      29.87F
EDENTON*       MOCLDY    55  52  88 N6        29.83F
CURRITUCK*     MOCLDY    56  53  87 NW3       29.82F
KILL DEVIL HLS CLOUDY    59  56  91 NW5       29.78F
MANTEO         CLOUDY    60  55  84 NW7       29.79F
CAPE HATTERAS  MOCLDY    62  54  74 N8        29.80F
TARBORO*       CLOUDY    54  47  76 W6        29.90S
GOLDSBORO      PTCLDY    55  46  70 NW12      29.88F
WASHINGTON     MOCLDY    55  46  73 NW5       29.86F
GREENVILLE     PTCLDY    54  46  76 NW5       29.90S
NEW BERN       PTCLDY    57  44  62 NW7       29.88R
WILMINGTON     MOCLDY    57  45  64 NW13      29.89S
$$

VAZ048-220900-
ELSEWHERE

CITY           SKY/WX    TMP DP  RH WIND       PRES   REMARKS
HARRISBURG PA  CLOUDY    55  48  77 CALM      29.89S
BALTIMORE      LGT RAIN  53  51  93 NW7       29.85S
ANNAPOLIS      LGT RAIN  55  52  89 N12       29.84S
ANDREWS AFB    CLOUDY    54  52  94 NW10      29.85S
WILMINGTON DE  RAIN      55  52  89 N14       29.83F
PHILADELPHIA   CLOUDY    57  50  77 N15       29.84F
WILDWOOD NJ*   CLOUDY    55  52  88 NW5       29.80S
ATLANTIC CITY  LGT RAIN  57  57 100 NE3       29.82R
HENDERSON NC   PTCLDY    49  43  80 NW5       29.92S
GREENSBORO     CLEAR     46  39  76 NW3       29.97R
ROCKY MOUNT    CLOUDY    53  43  68 NW9       29.90S
FAYETTEVILLE   CLEAR     54  40  59 NW13      29.92F
CHARLOTTE      CLEAR     49  36  61 N13       29.98F
$$

VAZ100-220900-
MARINE

STATION/POSITION TIME  TEMP    WIND        PRES    WAVE   SWELL
                       AIR SEA DIR/SP/G            HT/PER HT/PER
                 (UTC) (F)     (DEG/KT/KT) (MB)    (FT/S) (FT/S)
44066 TX TWR #4  0800   65 66   80/ 12/ 16 1008.9F   4/ 8   3/ 8
CAPE MAY NJ      0800   57 67  360/  3/  5 1008.4R
LEWES DE         0800   59 63  350/ 11/ 13 1008.4F
15NM E FENWICK I 0800   63 66  340/  6/  8 1008.2F   3/ 6   2/ 6
OCEAN-CITY-INLET 0800   56 65  360/  8/  9 1008.1F
WACHAPREAGUE VA  0800   55 64   10/  2/  3 1008.9F
THOMAS POINT MD  0800   55 64  350/ 14/ 16 1011.2F
GOOSES REEF MD   0800   58      10/ 16/ 19 1010.1S
COVE POINT MD    0800   56     350/ 17/ 21 1009.6R
SOLOMONS ISLAND  0800      66                N/A
BISHOPS HEAD MD  0800   55 61  340/  7/  9 1008.6F
PINEY POINT MD   0800          340/ 11/ 13   N/A
POTOMAC MD       0800   57     340/ 10/ 12 1008.8S
CAMBRIDGE MD     0800   56 63  350/ 12/ 14 1009.1F
LEWISETTA VA     0800   56 64  350/ 10/ 14 1009.4F
RAPPAHANNOCK LGT 0800          350/ 15/ 17 1009.4F
STINGRAY PT      0800   57     320/ 14/ 16 1009.9S
YORK RVR RNG VA  0800   55     330/ 12/ 14 1009.3F
YORKTOWN VA      0800   56 67  320/ 13/ 15 1009.6F
JAMESTOWN VA     0800   55     350/ 10/ 14   N/A
DOMINION TERM VA 0800   57      90/  2/  4 1009.9F
KIPTOPEKE VA     0800      69  290/ 27/ 32   N/A
CHES BAY BRIDGE  0800   57 67  320/  7/  9 1009.1F
CHESAPEAKE LGHT  0700   61     350/ 13/ 14 1009.5F
WILLOUBY STN VA  0800   56     330/  9/ 11 1008.5F
S CRANEY ISL VA  0800          310/  9/ 12 1009.3F
CAPE HENRY BUOY  0800      69                N/A     3/ 8
1ST LANDING BUOY 0800   59     270/ 23/ 31 1010.3R
CAPE CHARLES BUO 0800      69                N/A     3/ 9   2/ 9
64NM E OF VA BCH 0800   62 69  290/ 17/ 23 1008.6R   4/ 8   2/ 8
DUCK PIER NC     0800   60 69  330/ 10/ 12 1007.7F
44100 DUCK FRF   0800      71                N/A     2/ 3
44056 DUCK FRF   0800                        N/A     2/11   2/11
OREGON INLET NC  0800   61 68  290/  8/ 11 1008.6F
HATTERAS NC      0800   63 72  330/ 13/ 16 1009.4F
DIAMOND SHLS NC  0800   66     340/ 16/ 17 1008.7F   3/ 4   2/ 8
CAPE LOOKOUT NC  0700   62     340/ 18/ 20 1010.2F
$$



USA.gov is the U.S. government's official web portal to all federal, state and local government web resources and services.